EJU86XA LFMN-EDDB

Flight info

Callsign EJU86XA
Flight time 1h 42m
Altitude 38000
Route BASIP DCT ANAKI DCT DEVOX DCT ABESI/N0427F370 DCT GAMSA DCT RUDNO/N0425F380 T203 TIVDA/N0424F370 DCT ETVIS DCT NAVEK DCT GAVLI/N0427F380 T203 ATGUP ATGUP1R
Aircraft A320/M-SDE2E3FGHIJ1RWXYZ/LB1

Departure

Time 2026-05-05 09:33
Airport Nice-Côte d'Azur Airport (LFMN)

Arrival

Time 2026-05-05 11:15
Airport Berlin Brandenburg Airport (EDDB)
Time Latitude Longitude Altitude Speed Heading
2026-05-05 08:54 43.66119 7.20682 21 ft 0 kts 261°
2026-05-05 09:22 43.66119 7.20683 21 ft 1 kts 261°
2026-05-05 09:22 43.66123 7.20716 22 ft 4 kts 261°
2026-05-05 09:23 43.66126 7.20746 23 ft 4 kts 259°
2026-05-05 09:23 43.66136 7.20777 23 ft 4 kts 210°
2026-05-05 09:23 43.66159 7.20783 21 ft 4 kts 171°
2026-05-05 09:23 43.66169 7.20781 21 ft 0 kts 171°
2026-05-05 09:25 43.66168 7.20781 21 ft 1 kts 171°
2026-05-05 09:26 43.66143 7.20786 22 ft 6 kts 171°
2026-05-05 09:26 43.66082 7.20800 21 ft 11 kts 170°
2026-05-05 09:26 43.65987 7.20821 22 ft 16 kts 170°
2026-05-05 09:26 43.65865 7.20849 23 ft 19 kts 171°
2026-05-05 09:27 43.65750 7.20859 21 ft 14 kts 202°
2026-05-05 09:27 43.65680 7.20769 21 ft 13 kts 225°
2026-05-05 09:27 43.65616 7.20682 21 ft 13 kts 225°
2026-05-05 09:27 43.65545 7.20584 21 ft 15 kts 225°
2026-05-05 09:28 43.65465 7.20474 21 ft 17 kts 225°
2026-05-05 09:28 43.65380 7.20357 21 ft 17 kts 225°
2026-05-05 09:28 43.65310 7.20289 22 ft 8 kts 187°
2026-05-05 09:28 43.65291 7.20291 21 ft 2 kts 171°
2026-05-05 09:29 43.65280 7.20296 24 ft 1 kts 161°
2026-05-05 09:29 43.65272 7.20302 22 ft 1 kts 149°
2026-05-05 09:29 43.65264 7.20310 21 ft 1 kts 143°
2026-05-05 09:29 43.65258 7.20318 21 ft 1 kts 139°
2026-05-05 09:30 43.65236 7.20349 21 ft 11 kts 134°
2026-05-05 09:30 43.65159 7.20455 22 ft 17 kts 141°
2026-05-05 09:30 43.65047 7.20436 23 ft 18 kts 224°
2026-05-05 09:30 43.64962 7.20321 21 ft 16 kts 225°
2026-05-05 09:31 43.64886 7.20216 21 ft 15 kts 225°
2026-05-05 09:31 43.64812 7.20129 21 ft 13 kts 198°
2026-05-05 09:31 43.64739 7.20178 22 ft 13 kts 135°
2026-05-05 09:31 43.64692 7.20266 23 ft 5 kts 102°
2026-05-05 09:32 43.64717 7.20309 25 ft 14 kts 46°
2026-05-05 09:32 43.64986 7.20680 23 ft 92 kts 45°
2026-05-05 09:32 43.65585 7.21502 28 ft 148 kts 45°
2026-05-05 09:32 43.66370 7.22561 549 ft 157 kts 47°
2026-05-05 09:33 43.66859 7.23869 1327 ft 155 kts 82°
2026-05-05 09:33 43.66712 7.25310 2074 ft 154 kts 118°
2026-05-05 09:33 43.66039 7.26456 2736 ft 153 kts 134°
2026-05-05 09:33 43.65304 7.27516 3412 ft 152 kts 135°
2026-05-05 09:34 43.64569 7.28568 3992 ft 156 kts 136°
2026-05-05 09:34 43.63753 7.29724 4304 ft 179 kts 135°
2026-05-05 09:34 43.63111 7.31308 4585 ft 205 kts 100°
2026-05-05 09:34 43.63319 7.33352 4867 ft 229 kts 71°
2026-05-05 09:35 43.63864 7.35459 5592 ft 235 kts 70°
2026-05-05 09:35 43.65032 7.39770 7247 ft 244 kts 70°
2026-05-05 09:35 43.65630 7.41986 8040 ft 249 kts 70°
2026-05-05 09:36 43.66235 7.44255 8851 ft 254 kts 70°
2026-05-05 09:36 43.66847 7.46570 9686 ft 259 kts 70°
2026-05-05 09:36 43.67470 7.48936 10437 ft 265 kts 71°
2026-05-05 09:36 43.68127 7.51429 10814 ft 288 kts 70°
2026-05-05 09:37 43.68848 7.54136 11140 ft 312 kts 70°
2026-05-05 09:37 43.69626 7.57058 11439 ft 336 kts 70°
2026-05-05 09:37 43.70454 7.60178 11858 ft 353 kts 70°
2026-05-05 09:37 43.71306 7.63404 12560 ft 361 kts 71°
2026-05-05 09:38 43.72175 7.66690 13308 ft 367 kts 71°
2026-05-05 09:38 43.73107 7.70000 14007 ft 373 kts 64°
2026-05-05 09:38 43.74489 7.73051 14641 ft 378 kts 50°
2026-05-05 09:38 43.76234 7.75792 15290 ft 382 kts 47°
2026-05-05 09:39 43.77960 7.78473 15925 ft 386 kts 48°
2026-05-05 09:39 43.79753 7.81271 16578 ft 391 kts 48°
2026-05-05 09:39 43.81564 7.84111 17234 ft 396 kts 48°
2026-05-05 09:39 43.83393 7.86986 17886 ft 400 kts 48°
2026-05-05 09:40 43.85240 7.89897 18483 ft 405 kts 49°
2026-05-05 09:40 43.87108 7.92842 19048 ft 409 kts 48°
2026-05-05 09:40 43.88951 7.95867 19609 ft 413 kts 54°
2026-05-05 09:40 43.90486 7.99242 20178 ft 415 kts 61°
2026-05-05 09:41 43.91912 8.02736 20759 ft 418 kts 61°
2026-05-05 09:41 43.93350 8.06260 21315 ft 421 kts 61°
2026-05-05 09:41 43.94796 8.09811 21864 ft 424 kts 61°
2026-05-05 09:41 43.96255 8.13393 22405 ft 427 kts 61°
2026-05-05 09:42 43.97724 8.16998 22924 ft 431 kts 61°
2026-05-05 09:42 43.99206 8.20632 23446 ft 434 kts 61°
2026-05-05 09:42 44.00696 8.24290 23915 ft 437 kts 61°
2026-05-05 09:42 44.02193 8.27981 24352 ft 440 kts 61°
2026-05-05 09:43 44.03697 8.31697 24771 ft 443 kts 61°
2026-05-05 09:43 44.05208 8.35440 25181 ft 446 kts 61°
2026-05-05 09:43 44.06712 8.39168 25590 ft 449 kts 61°
2026-05-05 09:43 44.08264 8.43017 26002 ft 452 kts 61°
2026-05-05 09:44 44.09807 8.46847 26405 ft 455 kts 61°
2026-05-05 09:44 44.11342 8.50657 26799 ft 459 kts 61°
2026-05-05 09:44 44.12903 8.54538 27191 ft 462 kts 61°
2026-05-05 09:44 44.14475 8.58453 27578 ft 465 kts 61°
2026-05-05 09:45 44.16155 8.62385 27954 ft 468 kts 54°
2026-05-05 09:45 44.18251 8.65857 28340 ft 470 kts 42°
2026-05-05 09:45 44.20775 8.68741 28714 ft 469 kts 31°
2026-05-05 09:45 44.23627 8.70923 29082 ft 467 kts 19°
2026-05-05 09:46 44.26657 8.72331 29436 ft 464 kts
2026-05-05 09:46 44.29873 8.72969 29811 ft 459 kts 357°
2026-05-05 09:46 44.33025 8.73112 30148 ft 461 kts 356°
2026-05-05 09:46 44.36239 8.73247 30446 ft 463 kts 356°
2026-05-05 09:47 44.39466 8.73379 30745 ft 466 kts 356°
2026-05-05 09:47 44.42721 8.73515 31035 ft 468 kts 356°
2026-05-05 09:47 44.45992 8.73655 31314 ft 471 kts 356°
2026-05-05 09:47 44.49276 8.73797 31624 ft 473 kts 356°
2026-05-05 09:48 44.52559 8.73945 32065 ft 472 kts 356°
2026-05-05 09:48 44.55837 8.74097 32494 ft 471 kts 356°
2026-05-05 09:48 44.59102 8.74243 32880 ft 470 kts 356°
2026-05-05 09:48 44.62370 8.74386 33295 ft 469 kts 356°
2026-05-05 09:49 44.64574 8.74482 33577 ft 469 kts 356°
2026-05-05 09:49 44.68890 8.74680 34097 ft 469 kts 358°
2026-05-05 09:49 44.72147 8.75188 34452 ft 472 kts
2026-05-05 09:49 44.74349 8.75623 34692 ft 472 kts
2026-05-05 09:50 44.77595 8.76265 35036 ft 471 kts
2026-05-05 09:50 44.80841 8.76910 35362 ft 470 kts
2026-05-05 09:50 44.84082 8.77553 35674 ft 470 kts
2026-05-05 09:50 44.87313 8.78194 35982 ft 469 kts
2026-05-05 09:51 44.90544 8.78832 36281 ft 468 kts
2026-05-05 09:51 44.93766 8.79469 36567 ft 467 kts
2026-05-05 09:51 44.96984 8.80105 36856 ft 467 kts
2026-05-05 09:51 45.00197 8.80742 37142 ft 466 kts
2026-05-05 09:52 45.03404 8.81380 37414 ft 465 kts
2026-05-05 09:52 45.06612 8.82021 37691 ft 465 kts
2026-05-05 09:52 45.09810 8.82661 37936 ft 465 kts
2026-05-05 09:52 45.13008 8.83303 38005 ft 463 kts
2026-05-05 09:53 45.19334 8.84572 38001 ft 462 kts
2026-05-05 09:53 45.25736 8.85847 38043 ft 461 kts
2026-05-05 09:54 45.31987 8.87100 38047 ft 461 kts
2026-05-05 09:54 45.38346 8.88381 38041 ft 462 kts
2026-05-05 09:55 45.44710 8.89664 38024 ft 462 kts
2026-05-05 09:55 45.51074 8.90954 38017 ft 462 kts
2026-05-05 09:56 45.57434 8.92252 38015 ft 462 kts
2026-05-05 09:56 45.63808 8.93557 38018 ft 463 kts
2026-05-05 09:57 45.70178 8.94852 38014 ft 463 kts
2026-05-05 09:57 45.76550 8.96148 38006 ft 463 kts
2026-05-05 09:58 45.82928 8.97453 38016 ft 463 kts
2026-05-05 09:58 45.89301 8.98753 38029 ft 463 kts
2026-05-05 09:59 45.95676 9.00070 38036 ft 463 kts
2026-05-05 09:59 46.02044 9.01393 38035 ft 462 kts
2026-05-05 10:00 46.08365 9.02698 38038 ft 462 kts
2026-05-05 10:00 46.14770 9.04032 38037 ft 463 kts
2026-05-05 10:01 46.20975 9.06658 38033 ft 466 kts 15°
2026-05-05 10:01 46.27119 9.09609 38043 ft 466 kts 15°
2026-05-05 10:02 46.33274 9.12540 38035 ft 465 kts 15°
2026-05-05 10:02 46.39427 9.15475 38036 ft 465 kts 15°
2026-05-05 10:03 46.45561 9.18436 38022 ft 465 kts 16°
2026-05-05 10:03 46.51696 9.21411 38013 ft 464 kts 16°
2026-05-05 10:04 46.57826 9.24368 38001 ft 463 kts 16°
2026-05-05 10:04 46.63952 9.27344 37988 ft 464 kts 16°
2026-05-05 10:05 46.70069 9.30298 37997 ft 467 kts 16°
2026-05-05 10:05 46.76267 9.33306 37963 ft 466 kts 16°
2026-05-05 10:06 46.82406 9.36313 37953 ft 465 kts 17°
2026-05-05 10:06 46.88533 9.39312 37929 ft 464 kts 17°
2026-05-05 10:07 46.94609 9.42293 37921 ft 463 kts 17°
2026-05-05 10:07 47.00765 9.45308 37909 ft 463 kts 17°
2026-05-05 10:08 47.06867 9.48304 37900 ft 463 kts 17°
2026-05-05 10:08 47.12972 9.51319 37893 ft 463 kts 17°
2026-05-05 10:09 47.19072 9.54349 37895 ft 463 kts 17°
2026-05-05 10:09 47.25168 9.57377 37895 ft 462 kts 17°
2026-05-05 10:10 47.31268 9.60406 37901 ft 463 kts 17°
2026-05-05 10:10 47.37363 9.63477 37907 ft 463 kts 21°
2026-05-05 10:11 47.42905 9.68264 37908 ft 463 kts 40°
2026-05-05 10:11 47.47589 9.74796 37896 ft 463 kts 44°
2026-05-05 10:12 47.52235 9.81392 37891 ft 463 kts 44°
2026-05-05 10:12 47.56874 9.87997 37889 ft 463 kts 44°
2026-05-05 10:13 47.61504 9.94627 37884 ft 463 kts 44°
2026-05-05 10:13 47.66123 10.01272 37878 ft 462 kts 45°
2026-05-05 10:14 47.70742 10.07924 37874 ft 462 kts 44°
2026-05-05 10:14 47.73301 10.11604 37877 ft 462 kts 44°
2026-05-05 10:15 47.77920 10.18255 37878 ft 463 kts 45°
2026-05-05 10:15 47.82525 10.24954 37875 ft 463 kts 45°
2026-05-05 10:16 47.87129 10.31653 37873 ft 463 kts 45°
2026-05-05 10:16 47.91734 10.38359 37874 ft 463 kts 45°
2026-05-05 10:17 47.96335 10.45068 37862 ft 462 kts 45°
2026-05-05 10:17 48.00927 10.51796 37858 ft 462 kts 45°
2026-05-05 10:18 48.05514 10.58538 37866 ft 463 kts 45°
2026-05-05 10:18 48.10106 10.65283 37861 ft 463 kts 45°
2026-05-05 10:19 48.14696 10.72055 37862 ft 463 kts 45°
2026-05-05 10:19 48.19278 10.78853 37865 ft 464 kts 45°
2026-05-05 10:20 48.23864 10.85665 37872 ft 464 kts 45°
2026-05-05 10:20 48.28450 10.92482 37868 ft 464 kts 45°
2026-05-05 10:21 48.33031 10.99310 37869 ft 464 kts 45°
2026-05-05 10:21 48.37609 11.06159 37873 ft 464 kts 45°
2026-05-05 10:22 48.42186 11.13017 37872 ft 464 kts 45°
2026-05-05 10:22 48.46760 11.19896 37867 ft 464 kts 45°
2026-05-05 10:23 48.51320 11.26780 37864 ft 464 kts 45°
2026-05-05 10:23 48.55878 11.33674 37868 ft 464 kts 45°
2026-05-05 10:24 48.60367 11.40468 37868 ft 464 kts 45°
2026-05-05 10:24 48.64921 11.47390 37875 ft 464 kts 45°
2026-05-05 10:25 48.69470 11.54333 37878 ft 465 kts 45°
2026-05-05 10:25 48.74016 11.61288 37877 ft 465 kts 45°
2026-05-05 10:26 48.78563 11.68253 37869 ft 465 kts 45°
2026-05-05 10:26 48.83075 11.75189 37862 ft 465 kts 45°
2026-05-05 10:27 48.87639 11.82231 37856 ft 465 kts 45°
2026-05-05 10:27 48.92140 11.89192 37843 ft 465 kts 45°
2026-05-05 10:28 48.96704 11.96257 37840 ft 465 kts 45°
2026-05-05 10:28 49.00471 12.02101 37837 ft 465 kts 45°
2026-05-05 10:29 49.04991 12.09141 37836 ft 465 kts 45°
2026-05-05 10:29 49.09514 12.16205 37834 ft 465 kts 45°
2026-05-05 10:30 49.14029 12.23270 37832 ft 465 kts 45°
2026-05-05 10:30 49.18545 12.30348 37825 ft 465 kts 45°
2026-05-05 10:31 49.23053 12.37448 37829 ft 465 kts 45°
2026-05-05 10:31 49.27558 12.44566 37836 ft 466 kts 45°
2026-05-05 10:32 49.32057 12.51704 37831 ft 465 kts 45°
2026-05-05 10:32 49.36994 12.58065 37830 ft 463 kts 35°
2026-05-05 10:33 49.42157 12.63990 37834 ft 463 kts 34°
2026-05-05 10:33 49.47768 12.68728 37832 ft 460 kts 23°
2026-05-05 10:34 49.53544 12.72957 37838 ft 460 kts 23°
2026-05-05 10:34 49.59320 12.77225 37838 ft 460 kts 23°
2026-05-05 10:35 49.65154 12.81221 37840 ft 457 kts 14°
2026-05-05 10:35 49.71340 12.83106 37833 ft 453 kts
2026-05-05 10:36 49.77572 12.84533 37838 ft 453 kts
2026-05-05 10:36 49.83802 12.85980 37839 ft 453 kts
2026-05-05 10:37 49.90032 12.87424 37842 ft 453 kts
2026-05-05 10:37 49.96262 12.88862 37850 ft 453 kts
2026-05-05 10:38 50.02496 12.90308 37856 ft 453 kts
2026-05-05 10:38 50.08725 12.91762 37862 ft 453 kts
2026-05-05 10:39 50.14863 12.93191 37868 ft 453 kts
2026-05-05 10:39 50.21099 12.94647 37862 ft 453 kts
2026-05-05 10:40 50.27317 12.96261 37862 ft 455 kts 11°
2026-05-05 10:40 50.33218 12.99990 37858 ft 461 kts 24°
2026-05-05 10:41 50.38940 13.04538 37853 ft 461 kts 24°
2026-05-05 10:41 50.44665 13.09083 37855 ft 461 kts 24°
2026-05-05 10:42 50.53259 13.15926 37851 ft 462 kts 24°
2026-05-05 10:43 50.58982 13.20520 37850 ft 462 kts 24°
2026-05-05 10:43 50.64704 13.25134 37851 ft 462 kts 24°
2026-05-05 10:44 50.70435 13.29752 37854 ft 462 kts 24°
2026-05-05 10:44 50.76163 13.34374 37859 ft 463 kts 24°
2026-05-05 10:45 50.81855 13.38996 37864 ft 463 kts 24°
2026-05-05 10:45 50.87580 13.43662 37868 ft 463 kts 24°
2026-05-05 10:46 50.93382 13.48007 37883 ft 459 kts 15°
2026-05-05 10:46 50.99553 13.50136 37883 ft 452 kts
2026-05-05 10:47 51.05761 13.51791 37885 ft 453 kts
2026-05-05 10:47 51.11972 13.53469 37894 ft 453 kts
2026-05-05 10:48 51.18179 13.55152 37899 ft 452 kts
2026-05-05 10:48 51.24380 13.56842 37900 ft 452 kts
2026-05-05 10:49 51.30578 13.58524 37889 ft 452 kts
2026-05-05 10:49 51.36775 13.60214 37887 ft 452 kts
2026-05-05 10:50 51.42991 13.61913 37299 ft 457 kts
2026-05-05 10:50 51.46121 13.62773 36672 ft 456 kts
2026-05-05 10:50 51.49226 13.63628 35916 ft 449 kts
2026-05-05 10:50 51.52284 13.64468 35099 ft 443 kts
2026-05-05 10:51 51.55299 13.65302 34316 ft 437 kts
2026-05-05 10:51 51.58270 13.66165 33509 ft 432 kts
2026-05-05 10:51 51.61195 13.67154 32663 ft 427 kts
2026-05-05 10:51 51.64069 13.68228 31856 ft 422 kts
2026-05-05 10:52 51.66901 13.69332 31061 ft 416 kts
2026-05-05 10:52 51.69735 13.70435 30272 ft 411 kts
2026-05-05 10:52 51.72493 13.71493 29441 ft 406 kts
2026-05-05 10:52 51.75224 13.72518 28577 ft 400 kts
2026-05-05 10:53 51.77923 13.73511 27738 ft 395 kts
2026-05-05 10:53 51.80593 13.74482 26917 ft 391 kts
2026-05-05 10:53 51.83231 13.75438 26116 ft 387 kts
2026-05-05 10:53 51.85843 13.76396 25345 ft 383 kts
2026-05-05 10:54 51.88357 13.77325 24625 ft 379 kts
2026-05-05 10:54 51.90895 13.78075 23908 ft 371 kts 359°
2026-05-05 10:54 51.93421 13.77796 23162 ft 359 kts 342°
2026-05-05 10:54 51.95778 13.76493 22305 ft 350 kts 332°
2026-05-05 10:55 51.98016 13.74965 21532 ft 348 kts 332°
2026-05-05 10:55 52.00206 13.73475 20801 ft 344 kts 332°
2026-05-05 10:55 52.02437 13.71964 20066 ft 341 kts 332°
2026-05-05 10:55 52.04535 13.70365 19392 ft 333 kts 322°
2026-05-05 10:56 52.06332 13.68093 18740 ft 324 kts 313°
2026-05-05 10:56 52.08026 13.65622 18054 ft 320 kts 310°
2026-05-05 10:56 52.09328 13.62840 17361 ft 309 kts 293°
2026-05-05 10:56 52.10068 13.59634 16703 ft 300 kts 278°
2026-05-05 10:57 52.10349 13.56303 16029 ft 296 kts 274°
2026-05-05 10:57 52.10599 13.52986 15378 ft 294 kts 274°
2026-05-05 10:57 52.10851 13.49696 14738 ft 292 kts 274°
2026-05-05 10:57 52.11100 13.46426 14120 ft 290 kts 274°
2026-05-05 10:58 52.11345 13.43180 13565 ft 286 kts 275°
2026-05-05 10:58 52.11580 13.40081 13432 ft 267 kts 274°
2026-05-05 10:58 52.11804 13.37160 13152 ft 255 kts 275°
2026-05-05 10:58 52.12285 13.34402 12701 ft 255 kts 293°
2026-05-05 10:59 52.13264 13.31992 12206 ft 256 kts 303°
2026-05-05 10:59 52.14333 13.29688 11704 ft 254 kts 303°
2026-05-05 10:59 52.15392 13.27398 11213 ft 253 kts 303°
2026-05-05 10:59 52.16445 13.25121 10716 ft 250 kts 303°
2026-05-05 11:00 52.17491 13.22855 10243 ft 250 kts 303°
2026-05-05 11:00 52.18302 13.20428 9757 ft 241 kts 283°
2026-05-05 11:00 52.18475 13.17769 9202 ft 234 kts 262°
2026-05-05 11:00 52.18047 13.15233 8614 ft 232 kts 247°
2026-05-05 11:01 52.17449 13.12789 8048 ft 232 kts 248°
2026-05-05 11:01 52.16856 13.10350 7496 ft 231 kts 248°
2026-05-05 11:01 52.16268 13.07925 6977 ft 230 kts 248°
2026-05-05 11:01 52.15682 13.05515 6441 ft 228 kts 248°
2026-05-05 11:02 52.15098 13.03119 6020 ft 225 kts 248°
2026-05-05 11:02 52.14519 13.00732 5905 ft 229 kts 248°
2026-05-05 11:02 52.13933 12.98320 5879 ft 230 kts 248°
2026-05-05 11:02 52.13342 12.95901 5876 ft 230 kts 248°
2026-05-05 11:03 52.12751 12.93481 5881 ft 230 kts 248°
2026-05-05 11:03 52.12158 12.91061 5884 ft 230 kts 248°
2026-05-05 11:03 52.11568 12.88642 5880 ft 230 kts 248°
2026-05-05 11:03 52.10977 12.86221 5877 ft 230 kts 248°
2026-05-05 11:04 52.10385 12.83801 5880 ft 230 kts 248°
2026-05-05 11:04 52.09792 12.81377 5885 ft 231 kts 248°
2026-05-05 11:04 52.09198 12.78954 5886 ft 231 kts 248°
2026-05-05 11:04 52.08602 12.76534 5879 ft 230 kts 248°
2026-05-05 11:05 52.08004 12.74109 5882 ft 231 kts 248°
2026-05-05 11:05 52.07610 12.71606 5878 ft 230 kts 270°
2026-05-05 11:05 52.08070 12.69131 5890 ft 234 kts 303°
2026-05-05 11:05 52.09329 12.67458 5894 ft 240 kts 335°
2026-05-05 11:06 52.10904 12.66507 5890 ft 242 kts 336°
2026-05-05 11:06 52.12508 12.65683 5885 ft 244 kts 352°
2026-05-05 11:06 52.14179 12.66125 5888 ft 249 kts 26°
2026-05-05 11:06 52.15447 12.68007 5719 ft 250 kts 61°
2026-05-05 11:07 52.16133 12.70601 5571 ft 250 kts 69°
2026-05-05 11:07 52.16769 12.73225 5420 ft 249 kts 69°
2026-05-05 11:07 52.17404 12.75847 5273 ft 248 kts 69°
2026-05-05 11:07 52.18040 12.78459 5145 ft 248 kts 69°
2026-05-05 11:08 52.18675 12.81068 5006 ft 247 kts 69°
2026-05-05 11:08 52.19306 12.83669 4881 ft 247 kts 68°
2026-05-05 11:08 52.19940 12.86269 4776 ft 246 kts 68°
2026-05-05 11:08 52.20572 12.88862 4705 ft 246 kts 69°
2026-05-05 11:09 52.21203 12.91439 4578 ft 243 kts 68°
2026-05-05 11:09 52.21836 12.93999 4454 ft 244 kts 68°
2026-05-05 11:09 52.22465 12.96566 4332 ft 243 kts 68°
2026-05-05 11:09 52.23094 12.99221 4209 ft 262 kts 69°
2026-05-05 11:10 52.23742 13.01977 4064 ft 255 kts 69°
2026-05-05 11:10 52.24167 13.03727 3954 ft 247 kts 68°
2026-05-05 11:10 52.24795 13.06309 3712 ft 243 kts 68°
2026-05-05 11:10 52.25405 13.08809 3582 ft 233 kts 68°
2026-05-05 11:11 52.25997 13.11258 3427 ft 242 kts 68°
2026-05-05 11:11 52.26638 13.13906 3300 ft 249 kts 68°
2026-05-05 11:11 52.27269 13.16513 3181 ft 242 kts 67°
2026-05-05 11:11 52.27876 13.19044 3073 ft 243 kts 69°
2026-05-05 11:12 52.28493 13.21605 2987 ft 240 kts 68°
2026-05-05 11:12 52.29101 13.24110 2968 ft 234 kts 68°
2026-05-05 11:12 52.29690 13.26556 2781 ft 229 kts 68°
2026-05-05 11:12 52.30254 13.28906 2498 ft 216 kts 68°
2026-05-05 11:13 52.30786 13.31136 2223 ft 206 kts 68°
2026-05-05 11:13 52.31302 13.33276 1949 ft 200 kts 68°
2026-05-05 11:13 52.31801 13.35364 1706 ft 191 kts 68°
2026-05-05 11:13 52.32274 13.37339 1441 ft 183 kts 68°
2026-05-05 11:14 52.32730 13.39249 1181 ft 176 kts 68°
2026-05-05 11:14 52.33164 13.41062 949 ft 167 kts 68°
2026-05-05 11:14 52.33572 13.42769 735 ft 157 kts 69°
2026-05-05 11:14 52.33954 13.44368 540 ft 144 kts 70°
2026-05-05 11:15 52.34306 13.45848 350 ft 137 kts 70°
2026-05-05 11:15 52.34649 13.47287 176 ft 134 kts 70°
2026-05-05 11:15 52.34947 13.48537 162 ft 96 kts 69°
2026-05-05 11:15 52.35128 13.49291 160 ft 49 kts 69°
2026-05-05 11:16 52.35184 13.49566 160 ft 17 kts 46°
2026-05-05 11:16 52.35222 13.49710 158 ft 12 kts 66°
2026-05-05 11:16 52.35259 13.49822 157 ft 12 kts 52°
2026-05-05 11:16 52.35337 13.49944 154 ft 17 kts 38°
2026-05-05 11:17 52.35423 13.50057 155 ft 15 kts 39°
2026-05-05 11:17 52.35496 13.50152 154 ft 12 kts 38°
2026-05-05 11:17 52.35550 13.50221 156 ft 9 kts 38°
2026-05-05 11:17 52.35595 13.50290 157 ft 11 kts 52°
2026-05-05 11:18 52.35633 13.50438 156 ft 17 kts 69°
2026-05-05 11:18 52.35675 13.50618 158 ft 14 kts 69°
2026-05-05 11:18 52.35755 13.50680 154 ft 16 kts 335°
2026-05-05 11:18 52.35853 13.50617 154 ft 14 kts 339°
2026-05-05 11:19 52.35938 13.50553 153 ft 9 kts 303°
2026-05-05 11:19 52.35921 13.50455 153 ft 8 kts 249°
2026-05-05 11:19 52.35914 13.50424 154 ft 1 kts 249°
2026-05-05 11:19 52.35914 13.50422 154 ft 0 kts 249°